Time,TemperatureF,DewpointF,PressureIn,WindDirection,WindDirectionDegrees,WindSpeedMPH,WindSpeedGustMPH,Humidity,HourlyPrecipIn,Conditions,Clouds,dailyrainin,SoftwareType,DateUTC
2013-03-17 00:00:00,54.7,43.0,30.01,WNW,298,0.0,0.0,65,0.00,,,0.00,weatherlink.com 1.10,2013-03-17 04:00:00,
2013-03-17 00:15:00,53.3,44.0,30.01,WNW,298,0.0,1.0,70,0.00,,,0.00,weatherlink.com 1.10,2013-03-17 04:15:00,
2013-03-17 00:30:00,51.9,43.0,30.02,WNW,298,0.0,0.0,72,0.00,,,0.00,weatherlink.com 1.10,2013-03-17 04:30:00,
2013-03-17 00:45:00,51.2,43.0,30.02,WNW,298,0.0,0.0,73,0.00,,,0.00,weatherlink.com 1.10,2013-03-17 04:45:00,
2013-03-17 01:00:00,50.9,43.0,30.02,WNW,298,0.0,0.0,74,0.00,,,0.00,weatherlink.com 1.10,2013-03-17 05:00:00,
2013-03-17 01:15:00,50.3,43.0,30.02,WNW,282,0.0,0.0,75,0.00,,,0.00,weatherlink.com 1.10,2013-03-17 05:15:00,
2013-03-17 01:30:00,50.1,43.0,30.02,WNW,282,0.0,1.0,76,0.00,,,0.00,weatherlink.com 1.10,2013-03-17 05:30:00,
2013-03-17 01:45:00,50.1,43.0,30.02,WNW,295,0.0,1.0,76,0.00,,,0.00,weatherlink.com 1.10,2013-03-17 05:45:00,
2013-03-17 02:00:00,50.7,43.0,30.02,SW,221,0.0,1.0,74,0.00,,,0.00,weatherlink.com 1.10,2013-03-17 06:00:00,
2013-03-17 02:15:00,50.6,43.0,30.02,SW,221,0.0,0.0,74,0.00,,,0.00,weatherlink.com 1.10,2013-03-17 06:15:00,
2013-03-17 02:30:00,50.3,43.0,30.02,SW,232,0.0,0.0,75,0.00,,,0.00,weatherlink.com 1.10,2013-03-17 06:30:00,
2013-03-17 02:45:00,50.0,42.0,30.02,WSW,256,0.0,1.0,75,0.00,,,0.00,weatherlink.com 1.10,2013-03-17 06:45:00,
2013-03-17 03:01:00,49.3,42.0,30.02,West,263,0.0,1.0,77,0.00,,,0.00,weatherlink.com 1.10,2013-03-17 07:01:00,
2013-03-17 03:16:00,49.3,42.0,30.02,West,281,0.0,1.0,77,0.00,,,0.00,weatherlink.com 1.10,2013-03-17 07:16:00,
2013-03-17 03:31:00,49.6,42.0,30.02,WNW,294,0.0,1.0,76,0.00,,,0.00,weatherlink.com 1.10,2013-03-17 07:31:00,
2013-03-17 03:46:00,49.4,42.0,30.02,West,266,0.0,1.0,76,0.00,,,0.00,weatherlink.com 1.10,2013-03-17 07:46:00,
2013-03-17 04:01:00,48.9,42.0,30.01,West,266,0.0,0.0,77,0.00,,,0.00,weatherlink.com 1.10,2013-03-17 08:01:00,
2013-03-17 04:16:00,48.4,42.0,30.00,West,265,0.0,0.0,79,0.00,,,0.00,weatherlink.com 1.10,2013-03-17 08:16:00,
2013-03-17 04:31:00,48.6,42.0,30.00,WSW,250,1.0,1.0,79,0.00,,,0.00,weatherlink.com 1.10,2013-03-17 08:31:00,
2013-03-17 04:46:00,49.3,42.0,30.00,West,259,0.0,1.0,77,0.00,,,0.00,weatherlink.com 1.10,2013-03-17 08:46:00,
2013-03-17 05:01:00,48.7,42.0,30.01,West,259,0.0,0.0,78,0.00,,,0.00,weatherlink.com 1.10,2013-03-17 09:01:00,
2013-03-17 05:31:00,47.2,42.0,30.01,WSW,256,0.0,1.0,82,0.00,,,0.00,weatherlink.com 1.10,2013-03-17 09:31:00,
2013-03-17 06:16:00,46.1,42.0,30.01,WSW,256,0.0,1.0,84,0.00,,,0.00,weatherlink.com 1.10,2013-03-17 10:16:00,
2013-03-17 06:46:00,45.7,42.0,30.01,West,276,0.0,1.0,85,0.00,,,0.00,weatherlink.com 1.10,2013-03-17 10:46:00,
2013-03-17 07:01:00,45.3,41.0,30.02,West,276,0.0,1.0,86,0.00,,,0.00,weatherlink.com 1.10,2013-03-17 11:01:00,
2013-03-17 07:31:00,46.2,42.0,30.03,West,269,1.0,1.0,85,0.00,,,0.00,weatherlink.com 1.10,2013-03-17 11:31:00,
2013-03-17 07:46:00,46.0,42.0,30.03,WNW,282,0.0,1.0,85,0.00,,,0.00,weatherlink.com 1.10,2013-03-17 11:46:00,
2013-03-17 08:01:00,46.3,42.0,30.03,WNW,283,0.0,0.0,85,0.00,,,0.00,weatherlink.com 1.10,2013-03-17 12:01:00,
2013-03-17 08:16:00,46.3,42.0,30.04,WNW,283,0.0,0.0,86,0.00,,,0.00,weatherlink.com 1.10,2013-03-17 12:16:00,
2013-03-17 08:31:00,46.1,43.0,30.04,WNW,283,0.0,1.0,87,0.00,,,0.00,weatherlink.com 1.10,2013-03-17 12:31:00,
2013-03-17 08:46:00,46.6,43.0,30.04,WNW,283,0.0,0.0,87,0.00,,,0.00,weatherlink.com 1.10,2013-03-17 12:46:00,
2013-03-17 09:01:00,47.6,43.0,30.05,WNW,283,0.0,1.0,85,0.00,,,0.00,weatherlink.com 1.10,2013-03-17 13:01:00,
2013-03-17 09:16:00,48.7,44.0,30.05,WNW,283,0.0,0.0,84,0.00,,,0.00,weatherlink.com 1.10,2013-03-17 13:16:00,
2013-03-17 09:31:00,50.0,45.0,30.06,West,279,0.0,1.0,82,0.00,,,0.00,weatherlink.com 1.10,2013-03-17 13:31:00,
2013-03-17 09:46:00,52.2,46.0,30.06,West,280,0.0,0.0,80,0.00,,,0.00,weatherlink.com 1.10,2013-03-17 13:46:00,
2013-03-17 10:01:00,54.4,46.0,30.06,West,271,0.0,1.0,73,0.00,,,0.00,weatherlink.com 1.10,2013-03-17 14:01:00,
2013-03-17 10:16:00,57.8,48.0,30.06,SE,131,0.0,1.0,70,0.00,,,0.00,weatherlink.com 1.10,2013-03-17 14:16:00,
2013-03-17 10:31:00,60.8,48.0,30.06,SE,134,2.0,2.0,64,0.00,,,0.00,weatherlink.com 1.10,2013-03-17 14:31:00,
2013-03-17 10:47:00,64.7,48.0,30.06,WNW,290,1.0,4.0,55,0.00,,,0.00,weatherlink.com 1.10,2013-03-17 14:47:00,
2013-03-17 11:02:00,66.8,47.0,30.05,NNW,330,2.0,4.0,49,0.00,,,0.00,weatherlink.com 1.10,2013-03-17 15:02:00,
2013-03-17 11:17:00,67.5,46.0,30.05,SSE,148,0.0,4.0,47,0.00,,,0.00,weatherlink.com 1.10,2013-03-17 15:17:00,
2013-03-17 11:32:00,68.9,47.0,30.04,WSW,240,1.0,5.0,46,0.00,,,0.00,weatherlink.com 1.10,2013-03-17 15:32:00,
2013-03-17 11:47:00,69.9,47.0,30.03,NNE,18,2.0,6.0,44,0.00,,,0.00,weatherlink.com 1.10,2013-03-17 15:47:00,
2013-03-17 12:02:00,70.4,45.0,30.04,SW,228,3.0,6.0,40,0.00,,,0.00,weatherlink.com 1.10,2013-03-17 16:02:00,
2013-03-17 12:17:00,69.7,44.0,30.04,SW,236,2.0,10.0,40,0.00,,,0.00,weatherlink.com 1.10,2013-03-17 16:17:00,
2013-03-17 12:32:00,68.8,45.0,30.04,WNW,302,1.0,4.0,43,0.00,,,0.00,weatherlink.com 1.10,2013-03-17 16:32:00,
2013-03-17 12:47:00,69.6,45.0,30.03,NW,305,1.0,4.0,42,0.00,,,0.00,weatherlink.com 1.10,2013-03-17 16:47:00,
2013-03-17 13:02:00,69.6,45.0,30.03,West,274,5.0,6.0,42,0.00,,,0.00,weatherlink.com 1.10,2013-03-17 17:02:00,
2013-03-17 13:17:00,70.6,47.0,30.02,West,280,5.0,6.0,43,0.00,,,0.00,weatherlink.com 1.10,2013-03-17 17:17:00,
2013-03-17 13:32:00,70.8,46.0,30.01,WNW,288,4.0,8.0,41,0.00,,,0.00,weatherlink.com 1.10,2013-03-17 17:32:00,
2013-03-17 13:49:00,71.7,46.0,30.01,West,280,4.0,6.0,40,0.00,,,0.00,weatherlink.com 1.10,2013-03-17 17:49:00,
2013-03-17 14:02:00,71.6,47.0,30.00,WNW,294,4.0,8.0,41,0.00,,,0.00,weatherlink.com 1.10,2013-03-17 18:02:00,
2013-03-17 14:17:00,72.0,46.0,29.99,NNW,344,4.0,7.0,40,0.00,,,0.00,weatherlink.com 1.10,2013-03-17 18:17:00,
2013-03-17 14:32:00,71.7,45.0,29.98,ESE,105,3.0,7.0,39,0.00,,,0.00,weatherlink.com 1.10,2013-03-17 18:32:00,
2013-03-17 14:47:00,71.5,46.0,29.98,NNW,334,8.0,11.0,40,0.00,,,0.00,weatherlink.com 1.10,2013-03-17 18:47:00,
2013-03-17 15:02:00,70.6,46.0,29.97,East,98,7.0,11.0,41,0.00,,,0.00,weatherlink.com 1.10,2013-03-17 19:02:00,
2013-03-17 15:17:00,70.9,46.0,29.97,WNW,291,1.0,10.0,41,0.00,,,0.00,weatherlink.com 1.10,2013-03-17 19:17:00,
2013-03-17 15:32:00,69.6,46.0,29.97,SW,236,4.0,9.0,43,0.00,,,0.00,weatherlink.com 1.10,2013-03-17 19:32:00,
2013-03-17 15:47:00,68.7,46.0,29.97,WNW,302,6.0,14.0,44,0.00,,,0.00,weatherlink.com 1.10,2013-03-17 19:47:00,
2013-03-17 16:02:00,68.2,46.0,29.97,WNW,293,2.0,8.0,46,0.00,,,0.00,weatherlink.com 1.10,2013-03-17 20:02:00,
2013-03-17 16:17:00,67.8,47.0,29.98,NW,306,5.0,10.0,48,0.00,,,0.00,weatherlink.com 1.10,2013-03-17 20:17:00,
2013-03-17 16:32:00,67.4,48.0,29.98,WSW,257,3.0,10.0,50,0.00,,,0.00,weatherlink.com 1.10,2013-03-17 20:32:00,
2013-03-17 16:47:00,67.2,48.0,29.99,NE,43,3.0,6.0,51,0.00,,,0.00,weatherlink.com 1.10,2013-03-17 20:47:00,
2013-03-17 17:04:00,66.6,48.0,29.99,WNW,296,3.0,11.0,51,0.00,,,0.00,weatherlink.com 1.10,2013-03-17 21:04:00,
2013-03-17 17:17:00,67.1,48.0,29.98,SW,222,6.0,7.0,51,0.00,,,0.00,weatherlink.com 1.10,2013-03-17 21:17:00,
2013-03-17 17:32:00,66.5,48.0,29.98,WNW,300,2.0,8.0,51,0.00,,,0.00,weatherlink.com 1.10,2013-03-17 21:32:00,
2013-03-17 17:47:00,65.9,48.0,29.98,WNW,285,1.0,9.0,52,0.00,,,0.00,weatherlink.com 1.10,2013-03-17 21:47:00,
2013-03-17 18:17:00,65.3,48.0,29.99,SW,225,1.0,7.0,53,0.00,,,0.00,weatherlink.com 1.10,2013-03-17 22:17:00,
2013-03-17 18:32:00,65.0,47.0,30.00,WNW,285,3.0,10.0,52,0.00,,,0.00,weatherlink.com 1.10,2013-03-17 22:32:00,
2013-03-17 18:47:00,64.6,46.0,29.99,NW,311,1.0,6.0,52,0.00,,,0.00,weatherlink.com 1.10,2013-03-17 22:47:00,
2013-03-17 19:02:00,64.2,46.0,29.99,SW,235,1.0,4.0,52,0.00,,,0.00,weatherlink.com 1.10,2013-03-17 23:02:00,
2013-03-17 19:17:00,63.6,45.0,30.00,NW,314,1.0,3.0,52,0.00,,,0.00,weatherlink.com 1.10,2013-03-17 23:17:00,
2013-03-17 19:32:00,63.3,45.0,30.00,NW,320,2.0,4.0,51,0.00,,,0.00,weatherlink.com 1.10,2013-03-17 23:32:00,
2013-03-17 19:47:00,62.6,45.0,30.02,West,274,2.0,6.0,52,0.00,,,0.00,weatherlink.com 1.10,2013-03-17 23:47:00,
2013-03-17 20:02:00,62.2,45.0,30.02,WNW,290,1.0,4.0,54,0.00,,,0.00,weatherlink.com 1.10,2013-03-18 00:02:00,
2013-03-17 20:17:00,61.8,46.0,30.02,West,277,0.0,5.0,57,0.00,,,0.00,weatherlink.com 1.10,2013-03-18 00:17:00,
2013-03-17 20:32:00,61.4,47.0,30.03,WNW,287,0.0,4.0,59,0.00,,,0.00,weatherlink.com 1.10,2013-03-18 00:32:00,
2013-03-17 20:47:00,61.0,47.0,30.04,WNW,293,1.0,3.0,61,0.00,,,0.00,weatherlink.com 1.10,2013-03-18 00:47:00,
2013-03-17 21:02:00,60.5,48.0,30.05,NNW,342,0.0,1.0,63,0.00,,,0.00,weatherlink.com 1.10,2013-03-18 01:02:00,
2013-03-17 21:17:00,60.3,47.0,30.05,NW,311,0.0,2.0,63,0.00,,,0.00,weatherlink.com 1.10,2013-03-18 01:17:00,
2013-03-17 21:32:00,59.7,48.0,30.05,WSW,252,0.0,1.0,65,0.00,,,0.00,weatherlink.com 1.10,2013-03-18 01:32:00,
2013-03-17 21:47:00,59.3,48.0,30.06,WNW,283,0.0,1.0,66,0.00,,,0.00,weatherlink.com 1.10,2013-03-18 01:47:00,
2013-03-17 22:17:00,59.2,48.0,30.07,West,267,0.0,3.0,66,0.00,,,0.00,weatherlink.com 1.10,2013-03-18 02:17:00,
2013-03-17 22:32:00,59.0,48.0,30.07,SSW,210,0.0,3.0,66,0.00,,,0.00,weatherlink.com 1.10,2013-03-18 02:32:00,
2013-03-17 22:47:00,58.6,48.0,30.08,SSE,162,0.0,2.0,67,0.00,,,0.00,weatherlink.com 1.10,2013-03-18 02:47:00,
2013-03-17 23:02:00,58.4,47.0,30.08,WNW,285,0.0,3.0,67,0.00,,,0.00,weatherlink.com 1.10,2013-03-18 03:02:00,
2013-03-17 23:18:00,57.8,48.0,30.08,NW,318,1.0,4.0,69,0.00,,,0.00,weatherlink.com 1.10,2013-03-18 03:18:00,
2013-03-17 23:33:00,57.1,47.0,30.08,East,91,0.0,3.0,70,0.00,,,0.00,weatherlink.com 1.10,2013-03-18 03:33:00,
2013-03-17 23:48:00,56.6,47.0,30.09,East,95,1.0,4.0,71,0.00,,,0.00,weatherlink.com 1.10,2013-03-18 03:48:00,